Location: Boiro
(42.6475°N, 8.8834°W)
Time: 15:50:39
(UTC+02:00)

Explorer 7 - Pass Details

Date: 03 July 2022
Orbit: 482 x 668 km, 50.3° (Epoch: 15 August)

Event Time Altitude Azimuth Distance (km) Brightness Sun altitude
Rises 03:05:21 0° 285° (WNW) 3,003 10.7 -24.1°
Reaches altitude 10° 03:07:57 10° 296° (WNW) 2,079 9.9 -24.1°
Maximum altitude 03:12:15 32° 359° (N) 1,119 9.0 -24.0°
Drops below altitude 10° 03:16:26 10° 63° (ENE) 2,007 10.1 -23.8°
Sets 03:18:54 0° 73° (ENE) 2,883 10.8 -23.8°
